LQSat (40958 NORAD) Tracking and Keplerian Element Data

This shows tracking and keplerian element data for the satellite.

Feedback or suggestion? Click here.




ElementValue
Catalog40958
NameLQSat
Epoch Orbit27115
Epoch Day296.13597695
Epoch Year2020
RAAN355.2908
Inclination97.8385
Eccentricity0.001955
Argument of Perigee102.2924
Mean Anonmoly258.0474
Mean Motion14.73134489
Decay Rate2.3E-07
L11 40958U 15057A 20296.13597695 .00000023 00000-0 11092-4 0 9990
L22 40958 097.8385 355.2908 0019550 102.2924 258.0474 14.73134489271150

Live tracking and technical data element details for LQSat (NORAD 40958). LQSat can be tracked NOW for your location showing map with azimuth and elevation plus other details from your city location.

Track the satellite on the map from your city or location and see movement details for azimuth, elevation, latitude, longitude, range, height, and movement on the map or in text.







IsCatalogInMostPopularTable: catalog: 40958, numindb: 267
Update: records affected: 1



GetName: 40958 LQSat

Hit Count: updated at: Sun, 25 Oct 2020 08:58:33 GMT